This is the latest recevied weather packets stored in our database for station/object NZ3C. If no packets are shown the sender has not sent any weather packets the latest 10 day(s).
| Time | Temp. | Humidity | Pressure | Rain* | Wind** | Luminosity | Snow |
|---|---|---|---|---|---|---|---|
| 1777808176 | 7.22° C | 88% | 1019.6 hPa | 0 mm | - | 36 W/m² | - |
| 1777807874 | 6.67° C | 86% | 1019.3 hPa | 0 mm | - | 38 W/m² | - |
| 1777807572 | 6.67° C | 90% | 1019.2 hPa | 0 mm | - | 33 W/m² | - |
| 1777807269 | 6.11° C | 88% | 1019 hPa | 0 mm | - | 31 W/m² | - |
| 1777806965 | 6.11° C | 91% | 1019.2 hPa | 0 mm | - | 30 W/m² | - |
| 1777806661 | 6.11° C | 90% | 1019.1 hPa | 0 mm | - | 28 W/m² | - |
| 1777806357 | 6.11° C | 91% | 1018.8 hPa | 0 mm | - | 25 W/m² | - |
| 1777806055 | 6.11° C | 91% | 1018.8 hPa | 0 mm | - | 23 W/m² | - |
| 1777805750 | 6.11° C | 90% | 1019 hPa | 0 mm | - | 21 W/m² | - |
| 1777805449 | 6.11° C | 90% | 1018.8 hPa | 0 mm | - | 19 W/m² | - |
| 1777805147 | 6.11° C | 92% | 1018.7 hPa | 0 mm | - | 16 W/m² | - |
| 1777804844 | 5.56° C | 92% | 1018.6 hPa | 0 mm | - | 13 W/m² | - |
| 1777804541 | 5.56° C | 94% | 1018.7 hPa | 0 mm | - | 11 W/m² | - |
| 1777804239 | 5.56° C | 94% | 1018.4 hPa | 0 mm | - | 8 W/m² | - |
| 1777803936 | 5.56° C | 94% | 1018.3 hPa | 0 mm | - | 5 W/m² | - |
| 1777803632 | 5.56° C | 93% | 1018.3 hPa | 0 mm | - | 3 W/m² | - |
| 1777803328 | 5.56° C | 94% | 1017.9 hPa | 0 mm | - | 2 W/m² | - |
| 1777803026 | 5.56° C | 94% | 1018.1 hPa | 0 mm | - | 1 W/m² | - |
| 1777802723 | 5.56° C | 94% | 1017.9 hPa | 0 mm | - | 0 W/m² | - |
| 1777802421 | 5.56° C | 94% | 1018 hPa | 0 mm | - | 0 W/m² | - |
| 1777802119 | 6.11° C | 93% | 1017.7 hPa | 0 mm | - | 0 W/m² | - |
| 1777801816 | 6.67° C | 92% | 1017.6 hPa | 0 mm | - | 0 W/m² | - |
| 1777801513 | 6.67° C | 91% | 1017.7 hPa | 0 mm | - | 0 W/m² | - |
| 1777801209 | 6.67° C | 92% | 1017.4 hPa | 0 mm | - | 0 W/m² | - |
| 1777800907 | 6.67° C | 93% | 1017.5 hPa | 0 mm | - | 0 W/m² | - |
* Rain latest hour (hover to see other rain measurements)
** Current wind speed in m/s (hover to see current wind gust speed)